STARLINK-11267 [DTC]

Last updated on Fri Oct 04 2024 00:02:04 GMT+0000 (Coordinated Universal Time)

1 60994U 24158E 24277.45948401 .00008174 00000+0 53902-4 0 9997 2 60994 53.1574 336.3162 0001308 101.7952 258.3216 15.76723916 5566
UTC large
Height (km)
Speed (km/s)
/
Latitude / Longitude
Inclination (degrees)
Orbital Period (minutes)
Azimuth
Elevation
Range (km)
Doppler Factor

Next 0 passes for location: London (51.5072 / 0.1276)

Sorry there are no passes over London.